SCP
0 0 0 0 0 -0 -0 -0 -0 -0 0 0 0 0 0 0 0 0 0 0 0 0 0 0 0 0 0 0 0 -0 -0 0 0 0 0 0 0 0
0 0 0 0 -0 -0 -0 0 0 0 0 0 0 0 0 0 0 0 0 0 0 0 0 0 0 0 0 0 0 -0 -0 0 0 0 0 0 0 0
0 0 0 0 0 0 0 0 0 0 0 0 0 0 0 0 0 0 0 0 0 0 0 0 0 0 0 0 0 0 0 0 0 0 0 0 0 0
0 0 0 0 0 0 0 0 0 0 0 0 0 0 0 0 0 0 0 0 0 0 0 0 0 0 0 0 0 0 0 0 0 0 0 0 0 0
0 0 0 0 0 0 0 0 0 0 0 0 0 0 0 0 0 0 0 0 0 0 0 0 0 0 0 0 0 0 0 0 0 0 0 0 0 0
0 0 0 0 0 0 0 0 0 0 0 0 0 0 0 0 0 0 0 0 0 0 0 0 0 0 0 0 0 0 0 0 0 0 0 0 0 0
0 0 0 0 0 0 0 0 0 0 0 0 0 0 0 0 0 0 0 0 0 0 0 0 0 0 0 0 0 0 0 0 0 0 0 0 0 0
0 0 0 0 0 0 0 0 0 0 0 0 0 0 0 0 0 0 0 0 0 0 0 0 0 0 0 0 0 0 0 0 0 0 0 0 0 0
0 0 0 0 0 0 0 0 0 0 0 0 0 0 0 0 0 0 0 0 0 0 0 0 0 0 0 0 0 0 0 0 0 0 0 0 0 0
0 0 0 0 0 0 0 0 0 0 0 0 0 0 0 0 0 0 0 0 0 0 0 0 0 0 0 0 0 0 0 0 0 0 0 0 0 0
0 0 0 0 0 0 0 0 0 0 0 0 0 0 0 0 0 0 0 0 0 0 0 0 0 0 0 0 0 0 0 0 0 0 0 0 0 0
0 0 0 0 0 0 0 0 0 0 0 0 0 0 0 0 0 0 0 0 0 0 0 0 0 0 0 0 0 0 0 0 0 0 0 0 0 0
0 0 0 0 0 0 0 0 0 0 0 0 0 0 0 0 0 0 0 0 0 0 0 0 0 0 0 0 0 0 0 0 0 0 0 0 0 0
0 0 0 0 0 0 0 0 0 0 0 0 0 0 0 0 0 0 0 0 0 0 0 0 0 0 0 0 0 0 0 0 0 0 0 0 0 0
0 0 0 0 0 0 0 0 0 0 0 0 0 0 0 0 0 0 0 0 0 0 0 0 0 0 0 0 0 0 0 0 0 0 0 0 0 0
0 0 0 0 0 0 0 0 0 0 0 0 0 0 0 0 0 0 0 0 0 0 0 0 0 0 0 0 0 0 0 0 0 0 0 0 0 0
0 0 0 0 0 0 0 0 0 0 0 0 0 0 0 0 0 0 0 0 0 0 0 0 0 0 0 0 0 0 0 0 0 0 0 0 0 0
0 0 0 0 0 0 0 0 0 0 0 0 0 0 0 0 0 0 0 0 0 0 0 0 0 0 0 0 0 0 0 0 0 0 0 0 0 0
0 0 0 0 0 0 0 0 0 0 0 0 0 0 0 0 0 0 0 0 0 0 0 0 0 0 0 0 0 0 0 0 0 0 0 0 0 0
0 0 0 0 0 0 0 0 0 0 0 0 0 0 0 0 0 0 0 0 0 0 0 0 0 0 0 0 0 0 -0 0 0 0 0 0 0 0
0 0 0 0 0 0 0 0 0 0 0 0 0 0 0 0 0 0 0 0 0 0 0 0 0 0 0 0 0 0 0 0 0 0 0 0 0 0
0 0 0 0 0 0 0 0 0 0 0 0 0 0 0 0 0 0 0 0 0 0 0 0 0 0 0 0 0 0 0 0 0 0 0 0 0 0
0 0 0 0 0 0 0 0 0 0 0 0 0 0 0 0 0 0 0 0 0 0 0 0 0 0 0 0 0 0 0 0 0 0 0 0 0 0
Wind_Speed_500mb
21 24 27 32 48 60 69 72 71 72 65 56 51 38 33 32 33 31 32 28 21 17 13 15 22 36 32 23 18 17 20 23 22 16 14 13 13 11
28 30 33 36 49 57 56 46 53 78 73 61 57 50 41 39 34 29 27 24 20 14 13 20 29 30 26 23 21 21 33 11 18 16 15 12 12 8
35 33 38 45 50 53 48 41 45 66 72 61 55 46 39 35 32 24 22 17 17 13 10 9 16 27 24 23 24 35 23 18 17 15 11 9 5 5
39 41 50 52 50 48 39 26 33 53 58 67 58 51 42 35 26 19 16 15 13 13 11 10 6 7 15 21 23 20 19 20 19 16 13 9 4 2
39 39 40 44 47 46 35 25 30 52 51 47 61 52 44 38 33 30 23 18 11 7 6 5 6 8 9 15 18 15 17 16 15 11 8 6 4 3
35 40 44 42 42 42 36 25 25 37 58 58 55 57 52 47 41 35 31 24 21 14 11 4 8 11 14 16 19 15 16 15 14 13 12 9 6 5
34 35 39 46 45 41 37 38 34 35 57 60 58 57 56 54 51 42 32 29 26 20 17 9 11 13 15 17 17 17 19 20 19 16 15 12 10 8
29 36 36 37 36 38 34 30 26 25 42 60 66 62 56 57 53 49 45 39 31 29 22 20 20 21 17 15 14 18 22 24 23 22 19 16 15 13
28 27 32 37 37 35 33 28 25 25 26 38 47 59 64 56 49 51 47 45 40 33 28 30 29 28 22 18 16 19 22 26 27 25 23 21 19 17
27 28 28 30 32 33 33 34 32 31 33 31 39 55 65 64 59 49 47 48 39 39 38 32 28 30 27 27 22 21 24 28 31 31 27 24 23 22
36 35 34 34 33 33 34 34 32 35 37 38 39 44 47 52 60 56 54 46 50 41 39 39 38 34 30 30 30 27 27 28 31 34 32 28 26 26
36 35 34 36 37 38 37 36 35 33 32 31 39 43 41 40 40 45 51 52 46 49 43 45 41 42 33 33 32 26 24 26 28 31 33 31 30 30
40 35 30 28 34 36 36 37 30 27 30 35 34 41 41 38 37 39 51 50 43 46 51 40 38 41 40 34 25 24 23 26 23 25 30 33 35 36
40 33 31 28 29 31 33 33 34 33 34 35 39 43 44 40 38 39 39 40 51 53 54 53 53 45 40 40 39 37 35 29 28 27 28 33 38 43
43 39 37 36 33 33 30 31 35 34 33 36 42 41 51 46 42 40 38 45 48 50 51 51 53 52 52 51 50 45 40 37 35 31 32 31 35 38
43 42 42 39 38 36 35 38 39 35 36 36 38 40 44 49 52 48 42 43 49 49 48 45 48 53 58 58 57 57 52 46 41 35 32 37 37 37
36 36 38 37 36 36 40 36 34 40 38 36 36 41 42 45 50 54 55 48 50 51 48 51 51 52 55 58 58 55 57 56 52 51 52 51 47 47
35 34 32 34 29 29 34 30 30 33 28 36 36 39 40 42 45 49 52 54 52 52 54 54 51 51 54 58 55 57 58 59 59 56 58 60 57 49
34 31 32 32 32 31 23 20 25 30 31 36 27 27 34 38 41 44 47 49 50 50 51 49 49 51 56 62 60 57 58 59 57 52 56 61 58 48
31 26 24 21 25 24 19 14 9 4 5 14 22 26 25 30 36 41 43 44 45 45 48 51 49 49 53 55 57 57 54 54 53 52 51 52 57 59
33 31 27 26 24 21 19 16 12 10 11 10 10 11 19 23 28 28 28 29 33 38 43 46 40 39 40 44 56 58 50 48 51 51 51 55 58 64
30 29 26 22 20 18 17 19 19 18 16 16 18 20 24 25 23 22 24 26 29 32 37 39 40 41 45 48 53 54 56 53 49 50 50 49 51 58
37 33 28 26 25 23 20 20 21 22 24 23 21 20 19 21 21 22 25 28 28 28 30 32 33 35 39 43 45 47 49 49 47 47 50 48 48 48
Wind_Direction_500mb
146 128 144 167 167 162 151 146 147 133 130 136 128 128 137 134 135 138 135 135 137 147 165 178 181 178 180 183 199 239 255 198 213 136 124 118 107 100
151 146 150 161 171 165 161 158 154 149 144 148 148 153 154 153 150 153 144 134 135 132 146 167 176 190 204 223 234 247 261 211 155 143 144 134 126 120
156 158 161 164 169 177 176 177 173 166 156 155 157 160 161 165 161 159 156 145 140 125 100 133 180 203 220 233 245 251 230 160 164 153 148 158 139 98
165 168 178 176 186 182 188 203 193 181 170 165 168 168 172 171 170 171 173 173 160 121 80 69 105 198 223 233 236 225 204 195 183 183 175 181 193 9
176 175 182 187 193 198 199 201 200 195 199 197 176 179 181 182 189 191 190 185 167 145 101 33 11 342 274 243 232 243 240 234 224 220 224 227 256 328
186 185 188 200 205 206 207 195 199 208 202 194 193 188 193 197 202 206 198 196 205 197 166 216 298 314 325 288 272 264 259 255 251 243 236 243 252 280
194 193 194 202 208 216 222 229 234 222 212 208 208 207 204 206 212 208 210 218 218 227 233 218 273 283 310 316 287 270 262 256 252 253 253 256 260 268
193 199 199 202 203 212 222 227 238 250 231 220 217 218 224 223 220 216 217 218 226 237 243 251 270 268 275 309 314 277 269 254 251 254 253 255 266 271
199 199 204 205 206 211 204 213 226 229 231 254 242 239 240 238 236 229 226 234 237 243 242 249 250 263 271 278 307 300 274 258 250 252 255 259 263 270
200 200 200 204 206 214 222 226 225 228 222 228 243 254 251 249 240 237 241 238 239 246 245 249 254 263 273 275 287 297 287 269 257 253 252 257 266 271
211 209 209 216 222 228 233 237 238 242 239 240 239 245 251 258 252 242 242 243 242 252 254 255 257 261 267 276 274 288 296 282 268 258 257 259 265 271
221 221 227 225 225 232 236 243 248 251 249 245 255 249 239 250 250 246 245 244 253 252 265 257 262 259 267 268 267 269 301 304 280 273 261 258 260 265
225 225 231 238 228 232 237 241 246 256 258 262 244 248 248 247 247 238 237 245 254 257 261 263 256 259 252 256 261 260 274 287 299 283 272 262 257 259
221 224 225 231 231 233 235 244 246 249 245 249 241 251 260 245 248 241 239 245 251 258 258 260 259 260 260 265 264 268 268 268 276 289 286 276 263 257
219 222 227 228 232 235 239 248 249 245 252 247 245 259 245 256 252 246 253 250 254 266 262 260 258 258 257 260 265 268 270 265 267 270 288 286 281 275
214 219 225 232 236 242 246 251 251 249 255 255 254 255 247 248 261 247 249 263 262 260 262 264 261 259 259 262 265 267 270 264 267 269 269 276 284 286
216 219 223 231 235 247 244 244 257 254 247 251 254 260 257 259 258 253 256 261 265 264 257 258 262 264 262 264 267 267 267 269 271 269 268 273 274 279
206 213 218 229 238 245 242 245 254 249 253 255 252 261 258 255 256 258 258 259 262 269 264 267 267 267 268 266 266 270 272 275 272 268 268 270 273 273
199 210 217 228 232 243 246 250 257 248 242 260 254 269 259 254 254 257 261 263 264 268 272 274 272 268 268 269 278 278 280 284 283 281 271 270 275 275
204 213 223 230 235 223 214 207 198 178 251 246 258 265 262 256 257 260 265 267 268 272 272 271 271 272 274 280 284 283 279 281 282 283 279 276 273 271
198 199 199 206 209 214 215 224 236 246 243 241 245 280 293 285 271 265 266 268 270 271 271 272 278 280 278 273 271 278 282 281 282 284 282 278 276 273
199 204 204 204 210 217 227 241 248 247 255 256 264 272 275 269 273 279 280 278 280 280 281 281 280 279 277 276 278 281 284 285 284 283 280 276 274 275
212 215 222 230 236 243 249 257 261 266 272 276 278 277 274 277 275 278 283 286 288 292 294 293 290 286 285 284 285 285 285 287 286 282 279 280 280 277
Wind_Speed_850mb
21 24 27 32 48 60 69 72 71 72 65 56 51 38 33 32 33 31 32 28 21 17 13 15 22 36 32 23 18 17 20 23 22 16 14 13 13 11
28 30 33 36 49 57 56 46 53 78 73 61 57 50 41 39 34 29 27 24 20 14 13 20 29 30 26 23 21 21 33 11 18 16 15 12 12 8
35 33 38 45 50 53 48 41 45 66 72 61 55 46 39 35 32 24 22 17 17 13 10 9 16 27 24 23 24 35 23 18 17 15 11 9 5 5
39 41 50 52 50 48 39 26 33 53 58 67 58 51 42 35 26 19 16 15 13 13 11 10 6 7 15 21 23 20 19 20 19 16 13 9 4 2
39 39 40 44 47 46 35 25 30 52 51 47 61 52 44 38 33 30 23 18 11 7 6 5 6 8 9 15 18 15 17 16 15 11 8 6 4 3
35 40 44 42 42 42 36 25 25 37 58 58 55 57 52 47 41 35 31 24 21 14 11 4 8 11 14 16 19 15 16 15 14 13 12 9 6 5
34 35 39 46 45 41 37 38 34 35 57 60 58 57 56 54 51 42 32 29 26 20 17 9 11 13 15 17 17 17 19 20 19 16 15 12 10 8
29 36 36 37 36 38 34 30 26 25 42 60 66 62 56 57 53 49 45 39 31 29 22 20 20 21 17 15 14 18 22 24 23 22 19 16 15 13
28 27 32 37 37 35 33 28 25 25 26 38 47 59 64 56 49 51 47 45 40 33 28 30 29 28 22 18 16 19 22 26 27 25 23 21 19 17
27 28 28 30 32 33 33 34 32 31 33 31 39 55 65 64 59 49 47 48 39 39 38 32 28 30 27 27 22 21 24 28 31 31 27 24 23 22
36 35 34 34 33 33 34 34 32 35 37 38 39 44 47 52 60 56 54 46 50 41 39 39 38 34 30 30 30 27 27 28 31 34 32 28 26 26
36 35 34 36 37 38 37 36 35 33 32 31 39 43 41 40 40 45 51 52 46 49 43 45 41 42 33 33 32 26 24 26 28 31 33 31 30 30
40 35 30 28 34 36 36 37 30 27 30 35 34 41 41 38 37 39 51 50 43 46 51 40 38 41 40 34 25 24 23 26 23 25 30 33 35 36
40 33 31 28 29 31 33 33 34 33 34 35 39 43 44 40 38 39 39 40 51 53 54 53 53 45 40 40 39 37 35 29 28 27 28 33 38 43
43 39 37 36 33 33 30 31 35 34 33 36 42 41 51 46 42 40 38 45 48 50 51 51 53 52 52 51 50 45 40 37 35 31 32 31 35 38
43 42 42 39 38 36 35 38 39 35 36 36 38 40 44 49 52 48 42 43 49 49 48 45 48 53 58 58 57 57 52 46 41 35 32 37 37 37
36 36 38 37 36 36 40 36 34 40 38 36 36 41 42 45 50 54 55 48 50 51 48 51 51 52 55 58 58 55 57 56 52 51 52 51 47 47
35 34 32 34 29 29 34 30 30 33 28 36 36 39 40 42 45 49 52 54 52 52 54 54 51 51 54 58 55 57 58 59 59 56 58 60 57 49
34 31 32 32 32 31 23 20 25 30 31 36 27 27 34 38 41 44 47 49 50 50 51 49 49 51 56 62 60 57 58 59 57 52 56 61 58 48
31 26 24 21 25 24 19 14 9 4 5 14 22 26 25 30 36 41 43 44 45 45 48 51 49 49 53 55 57 57 54 54 53 52 51 52 57 59
33 31 27 26 24 21 19 16 12 10 11 10 10 11 19 23 28 28 28 29 33 38 43 46 40 39 40 44 56 58 50 48 51 51 51 55 58 64
30 29 26 22 20 18 17 19 19 18 16 16 18 20 24 25 23 22 24 26 29 32 37 39 40 41 45 48 53 54 56 53 49 50 50 49 51 58
37 33 28 26 25 23 20 20 21 22 24 23 21 20 19 21 21 22 25 28 28 28 30 32 33 35 39 43 45 47 49 49 47 47 50 48 48 48
Wind_Direction_850mb
146 128 144 167 167 162 151 146 147 133 130 136 128 128 137 134 135 138 135 135 137 147 165 178 181 178 180 183 199 239 255 198 213 136 124 118 107 100
151 146 150 161 171 165 161 158 154 149 144 148 148 153 154 153 150 153 144 134 135 132 146 167 176 190 204 223 234 247 261 211 155 143 144 134 126 120
156 158 161 164 169 177 176 177 173 166 156 155 157 160 161 165 161 159 156 145 140 125 100 133 180 203 220 233 245 251 230 160 164 153 148 158 139 98
165 168 178 176 186 182 188 203 193 181 170 165 168 168 172 171 170 171 173 173 160 121 80 69 105 198 223 233 236 225 204 195 183 183 175 181 193 9
176 175 182 187 193 198 199 201 200 195 199 197 176 179 181 182 189 191 190 185 167 145 101 33 11 342 274 243 232 243 240 234 224 220 224 227 256 328
186 185 188 200 205 206 207 195 199 208 202 194 193 188 193 197 202 206 198 196 205 197 166 216 298 314 325 288 272 264 259 255 251 243 236 243 252 280
194 193 194 202 208 216 222 229 234 222 212 208 208 207 204 206 212 208 210 218 218 227 233 218 273 283 310 316 287 270 262 256 252 253 253 256 260 268
193 199 199 202 203 212 222 227 238 250 231 220 217 218 224 223 220 216 217 218 226 237 243 251 270 268 275 309 314 277 269 254 251 254 253 255 266 271
199 199 204 205 206 211 204 213 226 229 231 254 242 239 240 238 236 229 226 234 237 243 242 249 250 263 271 278 307 300 274 258 250 252 255 259 263 270
200 200 200 204 206 214 222 226 225 228 222 228 243 254 251 249 240 237 241 238 239 246 245 249 254 263 273 275 287 297 287 269 257 253 252 257 266 271
211 209 209 216 222 228 233 237 238 242 239 240 239 245 251 258 252 242 242 243 242 252 254 255 257 261 267 276 274 288 296 282 268 258 257 259 265 271
221 221 227 225 225 232 236 243 248 251 249 245 255 249 239 250 250 246 245 244 253 252 265 257 262 259 267 268 267 269 301 304 280 273 261 258 260 265
225 225 231 238 228 232 237 241 246 256 258 262 244 248 248 247 247 238 237 245 254 257 261 263 256 259 252 256 261 260 274 287 299 283 272 262 257 259
221 224 225 231 231 233 235 244 246 249 245 249 241 251 260 245 248 241 239 245 251 258 258 260 259 260 260 265 264 268 268 268 276 289 286 276 263 257
219 222 227 228 232 235 239 248 249 245 252 247 245 259 245 256 252 246 253 250 254 266 262 260 258 258 257 260 265 268 270 265 267 270 288 286 281 275
214 219 225 232 236 242 246 251 251 249 255 255 254 255 247 248 261 247 249 263 262 260 262 264 261 259 259 262 265 267 270 264 267 269 269 276 284 286
216 219 223 231 235 247 244 244 257 254 247 251 254 260 257 259 258 253 256 261 265 264 257 258 262 264 262 264 267 267 267 269 271 269 268 273 274 279
206 213 218 229 238 245 242 245 254 249 253 255 252 261 258 255 256 258 258 259 262 269 264 267 267 267 268 266 266 270 272 275 272 268 268 270 273 273
199 210 217 228 232 243 246 250 257 248 242 260 254 269 259 254 254 257 261 263 264 268 272 274 272 268 268 269 278 278 280 284 283 281 271 270 275 275
204 213 223 230 235 223 214 207 198 178 251 246 258 265 262 256 257 260 265 267 268 272 272 271 271 272 274 280 284 283 279 281 282 283 279 276 273 271
198 199 199 206 209 214 215 224 236 246 243 241 245 280 293 285 271 265 266 268 270 271 271 272 278 280 278 273 271 278 282 281 282 284 282 278 276 273
199 204 204 204 210 217 227 241 248 247 255 256 264 272 275 269 273 279 280 278 280 280 281 281 280 279 277 276 278 281 284 285 284 283 280 276 274 275
212 215 222 230 236 243 249 257 261 266 272 276 278 277 274 277 275 278 283 286 288 292 294 293 290 286 285 284 285 285 285 287 286 282 279 280 280 277